Year,Month,Day,Hour,Minute,Value (Times are PST for temperature in C)
2012,10,02,00,00,13.90
2012,10,02,00,01,13.90
2012,10,02,00,02,13.90
2012,10,02,00,03,13.90
2012,10,02,00,04,13.90
2012,10,02,00,05,13.90
2012,10,02,00,06,13.80
2012,10,02,00,07,13.80
2012,10,02,00,08,13.80
2012,10,02,00,09,13.80
2012,10,02,00,10,13.80
2012,10,02,00,11,13.70
2012,10,02,00,12,13.70
2012,10,02,00,13,13.70
2012,10,02,00,14,13.60
2012,10,02,00,15,13.60
2012,10,02,00,16,13.60
2012,10,02,00,17,13.60
2012,10,02,00,18,13.60
2012,10,02,00,19,13.60
2012,10,02,00,20,13.60
2012,10,02,00,21,13.50
2012,10,02,00,22,13.50
2012,10,02,00,23,13.60
2012,10,02,00,24,13.60
2012,10,02,00,25,13.60
2012,10,02,00,26,13.60
2012,10,02,00,27,13.60
2012,10,02,00,28,13.60
2012,10,02,00,29,13.50
2012,10,02,00,30,13.50
2012,10,02,00,31,13.50
2012,10,02,00,32,13.50
2012,10,02,00,33,13.50
2012,10,02,00,34,13.50
2012,10,02,00,35,13.50
2012,10,02,00,36,13.50
2012,10,02,00,37,13.40
2012,10,02,00,38,13.40
2012,10,02,00,39,13.40
2012,10,02,00,40,13.40
2012,10,02,00,41,13.40
2012,10,02,00,42,13.40
2012,10,02,00,43,13.30
2012,10,02,00,44,13.30
2012,10,02,00,45,13.30
2012,10,02,00,46,13.30
2012,10,02,00,47,13.30
2012,10,02,00,48,13.30
2012,10,02,00,49,13.20
2012,10,02,00,50,13.20
2012,10,02,00,51,13.20
2012,10,02,00,52,13.20
2012,10,02,00,53,13.20
2012,10,02,00,54,13.20
2012,10,02,00,55,13.20
2012,10,02,00,56,13.20
2012,10,02,00,57,13.20
2012,10,02,00,58,13.20
2012,10,02,00,59,13.20
2012,10,02,01,00,13.20
2012,10,02,01,01,13.20
2012,10,02,01,02,13.20
2012,10,02,01,03,13.20
2012,10,02,01,04,13.20
2012,10,02,01,05,13.20
2012,10,02,01,06,13.20
2012,10,02,01,07,13.10
2012,10,02,02,06,12.60
2012,10,02,02,07,12.60
2012,10,02,02,08,12.60
2012,10,02,02,09,12.60
2012,10,02,02,10,12.60
2012,10,02,02,11,12.60
2012,10,02,02,12,12.60
2012,10,02,02,13,12.60
2012,10,02,02,14,12.60
2012,10,02,02,15,12.70
2012,10,02,02,16,12.60
2012,10,02,02,17,12.70
2012,10,02,02,18,12.70
2012,10,02,02,19,12.60
2012,10,02,02,20,12.60
2012,10,02,02,21,12.60
2012,10,02,02,22,12.60
2012,10,02,02,23,12.60
2012,10,02,02,24,12.60
2012,10,02,02,25,12.60
2012,10,02,02,26,12.60
2012,10,02,02,27,12.60
2012,10,02,02,28,12.60
2012,10,02,02,29,12.60
2012,10,02,02,30,12.60
2012,10,02,02,31,12.60
2012,10,02,02,32,12.60
2012,10,02,02,33,12.60
2012,10,02,02,34,12.60
2012,10,02,02,35,12.60
2012,10,02,02,36,12.60
2012,10,02,02,37,12.60
2012,10,02,02,38,12.60
2012,10,02,02,39,12.60
2012,10,02,02,40,12.60
2012,10,02,02,41,12.60
2012,10,02,02,42,12.60
2012,10,02,02,43,12.50
2012,10,02,02,44,12.50
2012,10,02,02,45,12.50
2012,10,02,02,46,12.50
2012,10,02,02,47,12.50
2012,10,02,02,48,12.50
2012,10,02,02,49,12.40
2012,10,02,02,50,12.40
2012,10,02,02,51,12.40
2012,10,02,02,52,12.40
2012,10,02,02,53,12.40
2012,10,02,02,54,12.40
2012,10,02,02,55,12.40
2012,10,02,02,56,12.40
2012,10,02,02,57,12.40
2012,10,02,02,58,12.40
2012,10,02,02,59,12.40
2012,10,02,03,00,12.30
2012,10,02,03,01,12.30
2012,10,02,03,02,12.40
2012,10,02,03,32,12.40
2012,10,02,03,33,12.40
2012,10,02,03,34,12.40
2012,10,02,03,35,12.40
2012,10,02,03,36,12.40
2012,10,02,03,37,12.40
2012,10,02,03,38,12.40
2012,10,02,03,39,12.40
2012,10,02,03,40,12.40
2012,10,02,03,41,12.40
2012,10,02,03,42,12.40
2012,10,02,03,43,12.40
2012,10,02,03,44,12.40
2012,10,02,03,45,12.40
2012,10,02,03,46,12.40
2012,10,02,03,47,12.40
2012,10,02,03,48,12.30
2012,10,02,03,49,12.30
2012,10,02,03,50,12.30
2012,10,02,03,51,12.30
2012,10,02,03,52,12.30
2012,10,02,03,53,12.30
2012,10,02,03,54,12.30
2012,10,02,03,55,12.30
2012,10,02,03,56,12.30
2012,10,02,03,57,12.20
2012,10,02,03,58,12.20
2012,10,02,03,59,12.20
2012,10,02,04,00,12.20
2012,10,02,04,01,12.20
2012,10,02,04,02,12.20
2012,10,02,04,03,12.20
2012,10,02,04,04,12.20
2012,10,02,04,05,12.20
2012,10,02,04,06,12.20
2012,10,02,04,07,12.20
2012,10,02,04,08,12.10
2012,10,02,04,09,12.10
2012,10,02,04,10,12.10
2012,10,02,04,11,12.10
2012,10,02,04,12,12.10
2012,10,02,04,13,12.00
2012,10,02,04,14,12.00
2012,10,02,04,15,12.00
2012,10,02,04,16,12.00
2012,10,02,04,17,12.00
2012,10,02,04,18,11.90
2012,10,02,04,19,11.90
2012,10,02,04,20,11.90
2012,10,02,04,21,11.90
2012,10,02,04,22,11.90
2012,10,02,04,23,11.90
2012,10,02,04,24,11.90
2012,10,02,04,25,11.90
2012,10,02,04,26,11.90
2012,10,02,04,27,11.90
2012,10,02,04,28,11.90
2012,10,02,04,29,11.90
2012,10,02,04,30,11.90
2012,10,02,04,31,11.90
2012,10,02,04,32,11.90
2012,10,02,04,33,12.00
2012,10,02,04,34,12.00
2012,10,02,04,35,12.00
2012,10,02,04,36,12.00
2012,10,02,04,37,12.00
2012,10,02,04,38,12.00
2012,10,02,04,39,12.00
2012,10,02,04,40,12.00
2012,10,02,04,41,12.10
2012,10,02,04,42,12.10
2012,10,02,04,43,12.10
2012,10,02,04,44,12.10
2012,10,02,04,45,12.10
2012,10,02,04,46,12.00
2012,10,02,04,47,12.00
2012,10,02,04,48,12.00
2012,10,02,04,49,12.00
2012,10,02,04,50,11.90
2012,10,02,04,51,11.90
2012,10,02,04,52,11.90
2012,10,02,04,53,11.90
2012,10,02,04,54,11.90
2012,10,02,04,55,11.90
2012,10,02,04,56,11.90
2012,10,02,04,57,11.90
2012,10,02,04,58,11.90
2012,10,02,04,59,11.90
2012,10,02,05,00,11.90
2012,10,02,05,01,11.90
2012,10,02,05,02,11.90
2012,10,02,05,03,12.00
2012,10,02,05,04,12.00
2012,10,02,05,05,12.00
2012,10,02,05,06,11.90
2012,10,02,05,07,11.90
2012,10,02,05,08,11.90
2012,10,02,05,09,11.90
2012,10,02,05,10,11.90
2012,10,02,05,11,11.90
2012,10,02,05,12,11.90
2012,10,02,05,13,11.90
2012,10,02,05,14,11.90
2012,10,02,05,15,11.90
2012,10,02,05,16,11.90
2012,10,02,05,17,11.90
2012,10,02,05,18,11.90
2012,10,02,05,19,11.90
2012,10,02,05,20,11.90
2012,10,02,05,21,11.90
2012,10,02,05,22,11.90
2012,10,02,05,23,11.90
2012,10,02,05,24,11.90
2012,10,02,05,25,11.90
2012,10,02,05,26,11.90
2012,10,02,05,27,12.00
2012,10,02,05,28,11.90
2012,10,02,05,29,12.00
2012,10,02,05,30,12.00
2012,10,02,05,31,12.00
2012,10,02,05,32,12.00
2012,10,02,05,33,12.00
2012,10,02,05,34,11.90
2012,10,02,05,35,11.90
2012,10,02,05,36,11.90
2012,10,02,05,37,11.90
2012,10,02,05,38,11.90
2012,10,02,05,39,11.90
2012,10,02,05,40,11.90
2012,10,02,05,41,11.90
2012,10,02,05,42,11.90
2012,10,02,05,43,11.90
2012,10,02,05,44,11.90
2012,10,02,05,45,11.90
2012,10,02,05,46,11.80
2012,10,02,05,47,11.80
2012,10,02,05,48,11.80
2012,10,02,05,49,11.80
2012,10,02,05,50,11.80
2012,10,02,05,51,11.80
2012,10,02,05,52,11.80
2012,10,02,05,53,11.80
2012,10,02,05,54,11.70
2012,10,02,05,55,11.70
2012,10,02,05,56,11.70
2012,10,02,05,57,11.70
2012,10,02,05,58,11.70
2012,10,02,05,59,11.70
2012,10,02,06,00,11.70
2012,10,02,06,01,11.70
2012,10,02,06,02,11.60
2012,10,02,06,03,11.60
2012,10,02,06,04,11.60
2012,10,02,06,05,11.60
2012,10,02,06,06,11.60
2012,10,02,06,07,11.50
2012,10,02,06,08,11.50
2012,10,02,06,09,11.50
2012,10,02,06,10,11.50
2012,10,02,06,11,11.50
2012,10,02,06,12,11.50
2012,10,02,06,13,11.50
2012,10,02,06,14,11.50
2012,10,02,06,15,11.50
2012,10,02,06,16,11.50
2012,10,02,06,17,11.40
2012,10,02,06,18,11.40
2012,10,02,06,19,11.40
2012,10,02,06,20,11.40
2012,10,02,06,21,11.40
2012,10,02,06,22,11.30
2012,10,02,06,23,11.30
2012,10,02,06,24,11.30
2012,10,02,06,25,11.30
2012,10,02,06,26,11.30
2012,10,02,06,27,11.20
2012,10,02,06,28,11.20
2012,10,02,06,29,11.20
2012,10,02,06,30,11.20
2012,10,02,06,31,11.10
2012,10,02,06,32,11.10
2012,10,02,06,33,11.10
2012,10,02,06,34,11.10
2012,10,02,06,35,11.10
2012,10,02,06,36,11.10
2012,10,02,06,37,11.10
2012,10,02,06,38,11.10
2012,10,02,06,39,11.10
2012,10,02,06,40,11.10
2012,10,02,06,41,11.10
2012,10,02,06,42,11.10
2012,10,02,06,43,11.00
2012,10,02,06,44,11.00
2012,10,02,06,45,11.00
2012,10,02,06,46,11.00
2012,10,02,06,47,11.00
2012,10,02,06,48,11.00
2012,10,02,06,49,10.90
2012,10,02,06,50,10.90
2012,10,02,06,51,10.90
2012,10,02,06,52,10.90
2012,10,02,06,53,10.90
2012,10,02,06,54,10.90
2012,10,02,06,55,10.90
2012,10,02,06,56,10.90
2012,10,02,06,57,10.90
2012,10,02,06,58,10.90
2012,10,02,06,59,10.90
2012,10,02,07,00,10.90
2012,10,02,07,01,10.90
2012,10,02,07,02,10.80
2012,10,02,07,03,10.80
2012,10,02,07,04,10.80
2012,10,02,07,05,10.80
2012,10,02,07,06,10.80
2012,10,02,07,07,10.70
2012,10,02,07,08,10.70
2012,10,02,07,09,10.70
2012,10,02,07,10,10.70
2012,10,02,07,11,10.70
2012,10,02,07,12,10.70
2012,10,02,07,13,10.70
2012,10,02,07,14,10.70
2012,10,02,07,15,10.60
2012,10,02,07,16,10.60
2012,10,02,07,17,10.60
2012,10,02,07,18,10.60
2012,10,02,07,19,10.50
2012,10,02,07,20,10.50
2012,10,02,07,21,10.50
2012,10,02,07,22,10.40
2012,10,02,07,23,10.40
2012,10,02,07,24,10.40
2012,10,02,07,25,10.40
2012,10,02,07,26,10.40
2012,10,02,07,27,10.40
2012,10,02,07,28,10.40
2012,10,02,07,29,10.40
2012,10,02,07,30,10.50
2012,10,02,07,31,10.50
2012,10,02,07,32,10.50
2012,10,02,07,33,10.60
2012,10,02,07,34,10.60
2012,10,02,07,35,10.60
2012,10,02,07,36,10.60
2012,10,02,07,37,10.60
2012,10,02,07,38,10.60
2012,10,02,07,39,10.60
2012,10,02,07,40,10.60
2012,10,02,07,41,10.60
2012,10,02,07,42,10.60
2012,10,02,07,43,10.60
2012,10,02,07,44,10.60
2012,10,02,07,45,10.60
2012,10,02,07,46,10.60
2012,10,02,07,47,10.70
2012,10,02,07,48,10.70
2012,10,02,07,49,10.70
2012,10,02,07,50,10.70
2012,10,02,07,51,10.70
2012,10,02,07,52,10.70
2012,10,02,07,53,10.80
2012,10,02,07,54,10.80
2012,10,02,07,55,10.80
2012,10,02,07,56,10.80
2012,10,02,07,57,10.80
2012,10,02,07,58,10.80
2012,10,02,07,59,10.80
2012,10,02,08,00,10.90
2012,10,02,08,01,10.90
2012,10,02,08,02,10.90
2012,10,02,08,03,10.90
2012,10,02,08,04,10.90
2012,10,02,08,05,10.90
2012,10,02,08,06,10.90
2012,10,02,08,07,10.90
2012,10,02,08,08,10.90
2012,10,02,08,09,10.90
2012,10,02,08,10,10.90
2012,10,02,08,11,10.90
2012,10,02,08,12,10.90
2012,10,02,08,13,10.80
2012,10,02,08,14,10.80
2012,10,02,08,15,10.80
2012,10,02,08,16,10.80
2012,10,02,08,17,10.80
2012,10,02,08,18,10.80
2012,10,02,08,19,10.80
2012,10,02,08,20,10.90
2012,10,02,08,21,10.90
2012,10,02,08,22,10.90
2012,10,02,08,23,10.90
2012,10,02,08,24,10.90
2012,10,02,08,25,10.90
2012,10,02,08,26,10.90
2012,10,02,08,27,10.90
2012,10,02,08,28,10.90
2012,10,02,08,29,10.90
2012,10,02,08,30,10.90
2012,10,02,08,31,10.90
2012,10,02,08,32,10.90
2012,10,02,08,33,10.90
2012,10,02,08,34,10.90
2012,10,02,08,35,10.90
2012,10,02,08,36,10.90
2012,10,02,08,37,10.90
2012,10,02,08,38,10.90
2012,10,02,08,39,10.90
2012,10,02,08,40,10.90
2012,10,02,08,41,10.80
2012,10,02,08,42,10.80
2012,10,02,08,43,10.80
2012,10,02,08,44,10.80
2012,10,02,08,45,10.80
2012,10,02,08,46,10.80
2012,10,02,08,47,10.80
2012,10,02,08,48,10.80
2012,10,02,08,49,10.80
2012,10,02,08,50,10.80
2012,10,02,08,51,10.80
2012,10,02,08,52,10.80
2012,10,02,08,53,10.80
2012,10,02,08,54,10.80
2012,10,02,08,55,10.80
2012,10,02,08,56,10.80
2012,10,02,08,57,10.80
2012,10,02,08,58,10.80
2012,10,02,08,59,10.80
2012,10,02,09,00,10.90
2012,10,02,09,01,10.90
2012,10,02,09,02,10.90
2012,10,02,09,03,10.90
2012,10,02,09,04,10.90
2012,10,02,09,05,10.90
2012,10,02,09,06,10.90
2012,10,02,09,07,10.90
2012,10,02,09,08,10.90
2012,10,02,09,09,10.90
2012,10,02,09,10,10.90
2012,10,02,09,11,10.90
2012,10,02,09,12,10.90
2012,10,02,09,13,11.00
2012,10,02,09,14,11.00
2012,10,02,09,15,11.00
2012,10,02,09,16,11.00
2012,10,02,09,17,11.10
2012,10,02,09,18,11.10
2012,10,02,09,19,11.10
2012,10,02,09,20,11.10
2012,10,02,09,21,11.20
2012,10,02,09,22,11.20
2012,10,02,09,23,11.20
2012,10,02,09,24,11.20
2012,10,02,09,25,11.20
2012,10,02,09,26,11.20
2012,10,02,09,27,11.30
2012,10,02,09,28,11.30
2012,10,02,09,29,11.30
2012,10,02,09,30,11.30
2012,10,02,09,31,11.30
2012,10,02,09,32,11.40
2012,10,02,09,33,11.40
2012,10,02,09,34,11.40
2012,10,02,09,35,11.40
2012,10,02,09,36,11.40
2012,10,02,09,37,11.50
2012,10,02,09,38,11.50
2012,10,02,09,39,11.50
2012,10,02,09,40,11.60
2012,10,02,09,41,11.60
2012,10,02,09,42,11.60
2012,10,02,09,43,11.60
2012,10,02,09,44,11.60
2012,10,02,09,45,11.60
2012,10,02,09,46,11.60
2012,10,02,09,47,11.60
2012,10,02,09,48,11.60
2012,10,02,09,49,11.60
2012,10,02,09,50,11.60
2012,10,02,09,51,11.70
2012,10,02,09,52,11.70
2012,10,02,09,53,11.70
2012,10,02,09,54,11.70
2012,10,02,09,55,11.70
2012,10,02,09,56,11.70
2012,10,02,09,57,11.80
2012,10,02,09,58,11.80
2012,10,02,09,59,11.80
2012,10,02,10,00,11.80
2012,10,02,10,01,11.90
2012,10,02,10,02,11.90
2012,10,02,10,03,11.90
2012,10,02,10,04,11.90
2012,10,02,10,05,11.90
2012,10,02,10,06,12.00
2012,10,02,10,07,12.00
2012,10,02,10,08,12.00
2012,10,02,10,09,12.00
2012,10,02,10,10,12.00
2012,10,02,10,11,12.10
2012,10,02,10,12,12.10
2012,10,02,10,13,12.20
2012,10,02,10,14,12.20
2012,10,02,10,15,12.20
2012,10,02,10,16,12.30
2012,10,02,10,17,12.30
2012,10,02,10,18,12.30
2012,10,02,10,19,12.30
2012,10,02,10,20,12.30
2012,10,02,10,21,12.30
2012,10,02,10,22,12.30
2012,10,02,10,23,12.30
2012,10,02,10,24,12.30
2012,10,02,10,25,12.30
2012,10,02,10,26,12.30
2012,10,02,10,27,12.30
2012,10,02,10,28,12.30
2012,10,02,10,29,12.30
2012,10,02,10,30,12.30
2012,10,02,10,31,12.40
2012,10,02,10,32,12.40
2012,10,02,10,33,12.40
2012,10,02,10,34,12.40
2012,10,02,10,35,12.50
2012,10,02,10,36,12.50
2012,10,02,10,37,12.50
2012,10,02,10,38,12.60
2012,10,02,10,39,12.60
2012,10,02,10,40,12.70
2012,10,02,10,41,12.70
2012,10,02,10,42,12.70
2012,10,02,10,43,12.80
2012,10,02,10,44,12.80
2012,10,02,10,45,12.80
2012,10,02,10,46,12.80
2012,10,02,10,47,12.90
2012,10,02,10,48,12.90
2012,10,02,10,49,12.90
2012,10,02,10,50,12.90
2012,10,02,10,51,13.00
2012,10,02,10,52,13.00
2012,10,02,10,53,13.00
2012,10,02,10,54,13.10
2012,10,02,10,55,13.10
2012,10,02,10,56,13.10
2012,10,02,10,57,13.10
2012,10,02,10,58,13.10
2012,10,02,10,59,13.10
2012,10,02,11,00,13.20
2012,10,02,11,01,13.30
2012,10,02,11,02,13.30
2012,10,02,11,03,13.30
2012,10,02,11,04,13.30
2012,10,02,11,05,13.40
2012,10,02,11,06,13.40
2012,10,02,11,07,13.40
2012,10,02,11,08,13.50
2012,10,02,11,09,13.60
2012,10,02,11,10,13.60
2012,10,02,11,11,13.60
2012,10,02,11,12,13.60
2012,10,02,11,13,13.60
2012,10,02,11,14,13.60
2012,10,02,11,15,13.60
2012,10,02,11,16,13.60
2012,10,02,11,17,13.70
2012,10,02,11,18,13.70
2012,10,02,11,19,13.70
2012,10,02,11,20,13.70
2012,10,02,11,21,13.80
2012,10,02,11,22,13.80
2012,10,02,11,23,13.80
2012,10,02,11,24,13.80
2012,10,02,11,25,13.90
2012,10,02,11,26,13.90
2012,10,02,11,27,13.90
2012,10,02,11,28,14.00
2012,10,02,11,29,14.00
2012,10,02,11,30,14.00
2012,10,02,11,31,14.00
2012,10,02,11,32,14.00
2012,10,02,11,33,14.10
2012,10,02,11,34,14.10
2012,10,02,11,35,14.10
2012,10,02,11,36,14.10
2012,10,02,11,37,14.10
2012,10,02,11,38,14.20
2012,10,02,11,39,14.20
2012,10,02,11,40,14.30
2012,10,02,11,41,14.30
2012,10,02,11,42,14.30
2012,10,02,11,43,14.40
2012,10,02,11,44,14.40
2012,10,02,11,45,14.50
2012,10,02,11,46,14.50
2012,10,02,11,47,14.60
2012,10,02,11,48,14.60
2012,10,02,11,49,14.60
2012,10,02,11,50,14.60
2012,10,02,11,51,14.60
2012,10,02,11,52,14.70
2012,10,02,11,53,14.70
2012,10,02,11,54,14.70
2012,10,02,11,55,14.70
2012,10,02,11,56,14.70
2012,10,02,11,57,14.80
2012,10,02,11,58,14.80
2012,10,02,11,59,14.90
2012,10,02,12,00,15.00
2012,10,02,12,01,15.00
2012,10,02,12,02,15.00
2012,10,02,12,03,15.00
2012,10,02,12,04,15.00
2012,10,02,12,05,15.00
2012,10,02,12,06,15.00
2012,10,02,12,07,15.00
2012,10,02,12,08,15.00
2012,10,02,12,09,15.00
2012,10,02,12,10,15.00
2012,10,02,12,11,15.00
2012,10,02,12,12,15.00
2012,10,02,12,13,15.00
2012,10,02,12,14,15.00
2012,10,02,12,15,15.00
2012,10,02,12,16,15.00
2012,10,02,12,17,15.00
2012,10,02,12,18,15.00
2012,10,02,12,19,15.00
2012,10,02,12,20,14.90
2012,10,02,12,21,14.80
2012,10,02,12,22,14.90
2012,10,02,12,23,14.90
2012,10,02,12,24,14.90
2012,10,02,12,25,14.80
2012,10,02,12,26,14.80
2012,10,02,12,27,14.80
2012,10,02,12,28,14.70
2012,10,02,12,29,14.60
2012,10,02,12,30,14.50
2012,10,02,12,31,14.50
2012,10,02,12,32,14.50
2012,10,02,12,33,14.40
2012,10,02,12,34,14.50
2012,10,02,12,35,14.60
2012,10,02,12,36,14.70
2012,10,02,12,37,14.80
2012,10,02,12,38,14.80
2012,10,02,12,39,14.80
2012,10,02,12,40,14.80
2012,10,02,12,41,14.80
2012,10,02,12,42,14.90
2012,10,02,12,43,15.00
2012,10,02,12,44,14.90
2012,10,02,12,45,14.80
2012,10,02,12,46,14.80
2012,10,02,12,47,14.90
2012,10,02,12,48,14.90
2012,10,02,12,49,15.00
2012,10,02,12,50,15.00
2012,10,02,12,51,15.00
2012,10,02,12,52,15.00
2012,10,02,12,53,15.10
2012,10,02,12,54,15.10
2012,10,02,12,55,15.00
2012,10,02,12,56,15.10
2012,10,02,12,57,15.10
2012,10,02,12,58,15.10
2012,10,02,12,59,15.20
2012,10,02,13,00,15.30
2012,10,02,13,01,15.30
2012,10,02,13,02,15.40
2012,10,02,13,03,15.50
2012,10,02,13,04,15.50
2012,10,02,13,05,15.60
2012,10,02,13,06,15.60
2012,10,02,13,07,15.60
2012,10,02,13,08,15.60
2012,10,02,13,09,15.60
2012,10,02,13,10,15.50
2012,10,02,13,11,15.40
2012,10,02,13,12,15.40
2012,10,02,13,13,15.40
2012,10,02,13,14,15.50
2012,10,02,13,15,15.60
2012,10,02,13,16,15.70
2012,10,02,13,17,15.80
2012,10,02,13,18,15.90
2012,10,02,13,19,16.00
2012,10,02,13,20,16.10
2012,10,02,13,21,16.20
2012,10,02,13,22,16.10
2012,10,02,13,23,15.90
2012,10,02,13,24,15.80
2012,10,02,13,25,15.70
2012,10,02,13,26,15.60
2012,10,02,13,27,15.50
2012,10,02,13,28,15.40
2012,10,02,13,29,15.40
2012,10,02,13,30,15.40
2012,10,02,13,31,15.40
2012,10,02,13,32,15.40
2012,10,02,13,33,15.40
2012,10,02,13,34,15.30
2012,10,02,13,35,15.20
2012,10,02,13,36,15.10
2012,10,02,13,37,15.00
2012,10,02,13,38,15.00
2012,10,02,13,39,15.00
2012,10,02,13,40,15.00
2012,10,02,13,41,15.00
2012,10,02,13,42,15.10
2012,10,02,13,43,15.20
2012,10,02,13,44,15.20
2012,10,02,13,45,15.20
2012,10,02,13,46,15.20
2012,10,02,13,47,15.10
2012,10,02,13,48,15.10
2012,10,02,13,49,15.10
2012,10,02,13,50,15.10
2012,10,02,13,51,15.10
2012,10,02,13,52,15.20
2012,10,02,13,53,15.20
2012,10,02,13,54,15.30
2012,10,02,13,55,15.40
2012,10,02,13,56,15.40
2012,10,02,13,57,15.40
2012,10,02,13,58,15.30
2012,10,02,13,59,15.20
2012,10,02,14,00,15.00
2012,10,02,14,01,15.00
2012,10,02,14,02,15.00
2012,10,02,14,03,15.00
2012,10,02,14,04,15.00
2012,10,02,14,05,15.10
2012,10,02,14,06,15.20
2012,10,02,14,07,15.30
2012,10,02,14,08,15.30
2012,10,02,14,09,15.20
2012,10,02,14,10,15.10
2012,10,02,14,11,15.20
2012,10,02,14,12,15.20
2012,10,02,14,13,15.20
2012,10,02,14,14,15.20
2012,10,02,14,15,15.30
2012,10,02,14,16,15.40
2012,10,02,14,17,15.50
2012,10,02,14,18,15.60
2012,10,02,14,19,15.60
2012,10,02,14,20,15.60
2012,10,02,14,21,15.70
2012,10,02,14,22,15.70
2012,10,02,14,23,15.70
2012,10,02,14,24,15.70
2012,10,02,14,25,15.70
2012,10,02,14,26,15.80
2012,10,02,14,27,15.80
2012,10,02,14,28,15.80
2012,10,02,14,29,15.80
2012,10,02,14,30,15.80
2012,10,02,14,31,15.80
2012,10,02,14,32,15.80
2012,10,02,14,33,15.80
2012,10,02,14,34,15.80
2012,10,02,14,35,15.80
2012,10,02,14,36,15.70
2012,10,02,14,37,15.70
2012,10,02,14,38,15.70
2012,10,02,14,39,15.70
2012,10,02,14,40,15.70
2012,10,02,14,41,15.70
2012,10,02,14,42,15.80
2012,10,02,14,43,15.80
2012,10,02,14,44,15.80
2012,10,02,14,45,15.70
2012,10,02,14,46,15.60
2012,10,02,14,47,15.60
2012,10,02,14,48,15.60
2012,10,02,14,49,15.50
2012,10,02,14,50,15.50
2012,10,02,14,51,15.50
2012,10,02,14,52,15.40
2012,10,02,14,53,15.40
2012,10,02,14,54,15.40
2012,10,02,14,55,15.40
2012,10,02,14,56,15.20
2012,10,02,14,57,15.00
2012,10,02,14,58,15.00
2012,10,02,14,59,15.00
2012,10,02,15,00,15.00
2012,10,02,15,01,14.90
2012,10,02,15,02,14.80
2012,10,02,15,03,14.80
2012,10,02,15,04,14.80
2012,10,02,15,05,14.70
2012,10,02,15,06,14.70
2012,10,02,15,07,14.60
2012,10,02,15,08,14.60
2012,10,02,15,09,14.50
2012,10,02,15,10,14.40
2012,10,02,15,11,14.30
2012,10,02,15,12,14.20
2012,10,02,15,13,14.10
2012,10,02,15,14,14.10
2012,10,02,15,15,14.00
2012,10,02,15,16,14.00
2012,10,02,15,17,13.90
2012,10,02,15,18,13.90
2012,10,02,15,19,13.90
2012,10,02,15,20,13.80
2012,10,02,15,21,13.90
2012,10,02,15,22,13.90
2012,10,02,15,23,13.90
2012,10,02,15,24,13.80
2012,10,02,15,25,13.90
2012,10,02,15,26,13.90
2012,10,02,15,27,13.90
2012,10,02,15,28,13.90
2012,10,02,15,29,13.90
2012,10,02,15,30,13.90
2012,10,02,15,31,13.90
2012,10,02,15,32,14.00
2012,10,02,15,33,14.00
2012,10,02,15,34,14.00
2012,10,02,15,35,14.10
2012,10,02,15,36,14.10
2012,10,02,15,37,14.10
2012,10,02,15,38,14.00
2012,10,02,15,39,14.00
2012,10,02,15,40,14.00
2012,10,02,15,41,13.90
2012,10,02,15,42,14.00
2012,10,02,15,43,14.00
2012,10,02,15,44,14.00
2012,10,02,15,45,14.00
2012,10,02,15,46,14.00
2012,10,02,15,47,14.00
2012,10,02,15,48,14.00
2012,10,02,15,49,14.00
2012,10,02,15,50,14.00
2012,10,02,15,51,14.00
2012,10,02,15,52,14.10
2012,10,02,15,53,14.10
2012,10,02,15,54,14.10
2012,10,02,15,55,14.10
2012,10,02,15,56,14.10
2012,10,02,15,57,14.20
2012,10,02,15,58,14.20
2012,10,02,15,59,14.20
2012,10,02,16,00,14.20
2012,10,02,16,01,14.20
2012,10,02,16,02,14.20
2012,10,02,16,03,14.20
2012,10,02,16,04,14.30
2012,10,02,16,05,14.30
2012,10,02,16,06,14.20
2012,10,02,16,07,14.20
2012,10,02,16,08,14.20
2012,10,02,16,09,14.10
2012,10,02,16,10,14.10
2012,10,02,16,11,14.10
2012,10,02,16,12,14.10
2012,10,02,16,13,14.10
2012,10,02,16,14,14.20
2012,10,02,16,15,14.10
2012,10,02,16,16,14.10
2012,10,02,16,17,14.10
2012,10,02,16,18,14.10
2012,10,02,16,19,14.00
2012,10,02,16,20,14.00
2012,10,02,16,21,14.00
2012,10,02,16,22,14.00
2012,10,02,16,23,14.00
2012,10,02,16,24,14.00
2012,10,02,16,25,14.00
2012,10,02,16,26,14.00
2012,10,02,16,27,14.10
2012,10,02,16,28,14.10
2012,10,02,16,29,14.20
2012,10,02,16,30,14.20
2012,10,02,16,31,14.10
2012,10,02,16,32,14.10
2012,10,02,16,33,14.00
2012,10,02,16,34,14.00
2012,10,02,16,35,13.90
2012,10,02,16,36,13.90
2012,10,02,16,37,13.80
2012,10,02,16,38,13.80
2012,10,02,16,39,13.70
2012,10,02,16,40,13.70
2012,10,02,16,41,13.70
2012,10,02,16,42,13.60
2012,10,02,16,43,13.60
2012,10,02,16,44,13.60
2012,10,02,16,45,13.60
2012,10,02,16,46,13.60
2012,10,02,16,47,13.60
2012,10,02,16,48,13.60
2012,10,02,16,49,13.60
2012,10,02,16,50,13.60
2012,10,02,16,51,13.60
2012,10,02,16,52,13.60
2012,10,02,16,53,13.60
2012,10,02,16,54,13.60
2012,10,02,16,55,13.60
2012,10,02,16,56,13.60
2012,10,02,16,57,13.70
2012,10,02,16,58,13.70
2012,10,02,16,59,13.80
2012,10,02,17,00,13.80
2012,10,02,17,01,13.80
2012,10,02,17,02,13.90
2012,10,02,17,03,13.90
2012,10,02,17,04,14.00
2012,10,02,17,05,14.10
2012,10,02,17,06,14.10
2012,10,02,17,07,14.20
2012,10,02,17,08,14.20
2012,10,02,17,09,14.20
2012,10,02,17,10,14.20
2012,10,02,17,11,14.20
2012,10,02,17,12,14.20
2012,10,02,17,13,14.20
2012,10,02,17,14,14.20
2012,10,02,17,15,14.10
2012,10,02,17,16,14.10
2012,10,02,17,17,14.10
2012,10,02,17,18,14.10
2012,10,02,17,19,14.10
2012,10,02,17,20,14.10
2012,10,02,17,21,14.10
2012,10,02,17,22,14.20
2012,10,02,17,23,14.20
2012,10,02,17,24,14.30
2012,10,02,17,25,14.30
2012,10,02,17,26,14.40
2012,10,02,17,27,14.40
2012,10,02,17,28,14.40
2012,10,02,17,29,14.30
2012,10,02,17,30,14.30
2012,10,02,17,31,14.20
2012,10,02,17,32,14.10
2012,10,02,17,33,14.10
2012,10,02,17,34,14.00
2012,10,02,17,35,14.00
2012,10,02,17,36,13.90
2012,10,02,17,37,13.90
2012,10,02,17,38,13.80
2012,10,02,17,39,13.80
2012,10,02,17,40,13.80
2012,10,02,17,41,13.80
2012,10,02,17,42,13.80
2012,10,02,17,43,13.70
2012,10,02,17,44,13.70
2012,10,02,17,45,13.70
2012,10,02,17,46,13.70
2012,10,02,17,47,13.70
2012,10,02,17,48,13.70
2012,10,02,17,49,13.70
2012,10,02,17,50,13.70
2012,10,02,17,51,13.70
2012,10,02,17,52,13.70
2012,10,02,17,53,13.70
2012,10,02,17,54,13.70
2012,10,02,17,55,13.70
2012,10,02,17,56,13.70
2012,10,02,17,57,13.70
2012,10,02,17,58,13.70
2012,10,02,17,59,13.70
2012,10,02,18,00,13.70
2012,10,02,18,01,13.60
2012,10,02,18,02,13.60
2012,10,02,18,03,13.60
2012,10,02,18,04,13.60
2012,10,02,18,05,13.60
2012,10,02,18,06,13.60
2012,10,02,18,07,13.60
2012,10,02,18,08,13.60
2012,10,02,18,09,13.50
2012,10,02,18,10,13.50
2012,10,02,18,11,13.50
2012,10,02,18,12,13.50
2012,10,02,18,13,13.40
2012,10,02,18,14,13.40
2012,10,02,18,15,13.40
2012,10,02,18,16,13.40
2012,10,02,18,17,13.40
2012,10,02,18,18,13.40
2012,10,02,18,19,13.30
2012,10,02,18,20,13.30
2012,10,02,18,21,13.30
2012,10,02,18,22,13.30
2012,10,02,18,23,13.30
2012,10,02,18,24,13.30
2012,10,02,18,25,13.20
2012,10,02,18,26,13.20
2012,10,02,18,27,13.20
2012,10,02,18,28,13.20
2012,10,02,18,29,13.20
2012,10,02,18,30,13.10
2012,10,02,18,31,13.10
2012,10,02,18,32,13.10
2012,10,02,18,33,13.00
2012,10,02,18,34,13.00
2012,10,02,18,35,13.00
2012,10,02,18,36,12.90
2012,10,02,18,37,12.90
2012,10,02,18,38,12.90
2012,10,02,18,39,12.90
2012,10,02,18,40,12.90
2012,10,02,18,41,12.80
2012,10,02,18,42,12.80
2012,10,02,18,43,12.80
2012,10,02,18,44,12.70
2012,10,02,18,45,12.70
2012,10,02,18,46,12.60